This is the latest recevied weather packets stored in our database for station/object WX4ET. If no packets are shown the sender has not sent any weather packets the latest 10 day(s).
| Time | Temp. | Humidity | Pressure | Rain* | Wind** | Luminosity | Snow |
|---|---|---|---|---|---|---|---|
| 1777518063 | 16.67° C | 81% | 1007.8 hPa | 0 mm | - | 0 W/m² | - |
| 1777517760 | 16.67° C | 78% | 1008.1 hPa | 0 mm | - | 0 W/m² | - |
| 1777517456 | 16.67° C | 78% | 1007.8 hPa | 0 mm | - | 0 W/m² | - |
| 1777517155 | 17.22° C | 78% | 1007.9 hPa | 0 mm | - | 0 W/m² | - |
| 1777516852 | 17.22° C | 78% | 1007.7 hPa | 0 mm | - | 0 W/m² | - |
| 1777516549 | 17.78° C | 78% | 1007.7 hPa | 0 mm | - | 0 W/m² | - |
| 1777516244 | 17.78° C | 78% | 1007.6 hPa | 0 mm | - | 0 W/m² | - |
| 1777515941 | 18.33° C | 77% | 1007.7 hPa | 0 mm | - | 0 W/m² | - |
| 1777515638 | 18.33° C | 77% | 1007.7 hPa | 0 mm | - | 0 W/m² | - |
| 1777515335 | 18.33° C | 77% | 1007.7 hPa | 0 mm | - | 0 W/m² | - |
| 1777515031 | 18.33° C | 77% | 1007.3 hPa | 0 mm | - | 0 W/m² | - |
| 1777514727 | 18.33° C | 76% | 1007.1 hPa | 0 mm | - | 0 W/m² | - |
| 1777514425 | 18.33° C | 76% | 1006.9 hPa | 0 mm | - | 0 W/m² | - |
| 1777514121 | 18.89° C | 76% | 1006.8 hPa | 0 mm | - | 0 W/m² | - |
| 1777513818 | 18.89° C | 76% | 1007 hPa | 0 mm | - | 0 W/m² | - |
| 1777513516 | 18.89° C | 75% | 1006.9 hPa | 0 mm | - | 0 W/m² | - |
| 1777513212 | 18.89° C | 77% | 1006.9 hPa | 0 mm | - | 0 W/m² | - |
| 1777512909 | 18.89° C | 78% | 1007 hPa | 0 mm | - | 0 W/m² | - |
| 1777512605 | 19.44° C | 77% | 1006.8 hPa | 0 mm | - | 0 W/m² | - |
| 1777512302 | 19.44° C | 76% | 1006.7 hPa | 0 mm | - | 0 W/m² | - |
| 1777511998 | 20° C | 74% | 1006.6 hPa | 0 mm | - | 0 W/m² | - |
| 1777511696 | 19.44° C | 75% | 1006.6 hPa | 0 mm | - | 0 W/m² | - |
| 1777511394 | 20° C | 74% | 1006.3 hPa | 0 mm | - | 0 W/m² | - |
| 1777511090 | 20° C | 74% | 1006.3 hPa | 0 mm | - | 0 W/m² | - |
| 1777510785 | 20° C | 75% | 1006 hPa | 0 mm | - | 0 W/m² | - |
* Rain latest hour (hover to see other rain measurements)
** Current wind speed in m/s (hover to see current wind gust speed)